SCP
0 0 0 0 0 0 0 0 0 0 0 0 0 0 0 0 0 0 0 0 0 0 0 0 0 0 0 0 0 0 0 0 0 0 0 0 0 0 0 0 0 0 0
0 0 0 0 0 0 0 0 0 0 0 0 0 0 0 0 0 0 0 0 0 0 0 0 0 0 0 0 0 0 0 0 0 0 0 0 0 0 0 0 0 0 0
0 0 0 0 0 0 0 0 0 0 0 0 0 0 0 0 0 -0 0 0 0 0 0 0 0 0 0 0 0 0 0 0 0 0 0 0 0 0 0 0 0 0 0
0 0 0 0 0 0 0 0 0 0 0 0 0 0 0 0 0 -0 -0 -0 -0 -0 0 0 0 0 0 0 0 0 0 0 0 0 0 0 0 0 0 0 0 0 0
0 0 0 0 0 0 0 0 0 0 0 0 0 0 0 0 -0 -0 -0 -0 -0 -0 -0 0 0 0 0 0 0 0 0 0 0 0 0 0 0 0 0 0 0 0 0
0 0 0 0 0 0 0 0 0 0 0 0 0 0 0 0 -0 -0 0 0 0 0 0 0 0 0 0 0 0 0 0 0 0 0 0 0 0 0 0 0 0 0 0
0 0 0 0 0 0 0 0 0 0 0 0 0 0 0 0 0 0 0 0 0 0 0 0 0 0 0 0 0 0 0 0 0 0 0 0 0 0 0 0 0 0 0
0 0 0 0 0 0 0 0 0 0 0 0 0 0 0 0 0 0 0 0 0 0 0 0 0 0 0 0 0 0 0 0 0 0 0 0 0 0 0 0 0 0 0
0 0 0 0 0 0 0 0 0 0 0 0 0 0 0 0 0 0 0 0 0 0 0 0 0 0 0 0 0 0 0 0 0 0 0 0 0 0 0 0 0 -0 -0
0 0 0 0 0 0 0 0 0 0 0 0 0 0 0 0 0 0 0 0 0 0 0 0 0 0 0 0 0 0 0 0 0 0 0 0 0 0 0 0 0 0 0
0 0 0 0 0 0 0 0 0 0 0 0 0 0 0 0 0 0 0 0 0 0 0 0 0 0 0 0 0 0 0 0 0 0 0 0 0 0 0 0 0 0 0
0 0 0 0 0 0 0 0 -0 -0 -0 -0 0 0 0 0 0 0 0 0 0 0 0 0 0 0 0 0 0 0 0 0 0 0 0 -0 0 0 0 0 0 0 0
0 0 0 0 0 0 0 -0 -0 -0 0 0 0 0 0 0 0 0 0 0 0 0 0 0 0 0 0 0 0 0 0 0 0 0 -0 0 0 0 0 0 0 0 0
0 0 0 0 0 -0 -0 -0 0 0 0 0 0 0 0 0 0 0 0 0 0 0 0 0 0 0 0 0 0 0 0 0 0 0 0 0 0 0 0 0 0 0 0
0 0 0 0 0 0 0 0 0 0 0 0 0 0 0 0 0 0 0 0 0 0 0 0 0 0 0 0 0 0 0 0 0 0 0 0 0 0 0 0 0 0 0
0 0 0 0 -0 0 0 0 -0 0 0 0 0 0 0 0 0 0 0 0 0 0 0 0 0 0 0 0 0 0 0 0 0 0 0 0 0 0 0 0 0 0 0
0 0 0 0 -0 0 0 0 0 0 0 0 0 0 0 0 0 0 0 0 0 0 0 0 0 0 0 0 0 0 0 0 0 0 0 0 0 0 0 0 0 0 0
0 0 0 0 0 0 0 0 0 0 0 0 0 0 0 0 0 0 0 0 0 0 0 0 0 0 0 0 0 0 0 0 0 0 0 0 0 0 0 0 0 0 0
0 0 0 0 -0 0 0 0 0 0 0 0 0 0 0 0 0 0 0 0 0 0 0 0 0 0 0 0 0 0 0 0 0 0 -0 -0 0 0 0 0 0 0 0
0 0 0 0 -0 0 0 0 0 0 0 0 0 0 0 0 0 0 0 0 0 0 0 0 0 0 0 0 -0 0 0 0 0 0 -0 -0 0 0 0 0 0 0 0
0 0 0 0 0 0 0 0 0 0 0 0 0 0 0 0 0 0 0 0 0 0 0 0 0 0 0 0 -0 0 0 0 0 0 0 0 0 0 0 0 0 0 0
0 0 0 0 0 0 0 0 0 0 0 0 0 0 0 0 0 0 0 0 0 0 0 0 0 0 0 -0 -0 0 0 0 0 0 0 0 0 0 0 0 0 0 0
0 0 0 0 0 0 0 0 0 0 0 0 0 0 0 0 0 0 0 0 0 0 0 0 0 -0 0 -0 -0 0 0 0 0 0 0 0 0 0 0 0 0 0 0
0 0 0 0 0 0 0 0 0 0 0 0 0 0 0 0 0 0 0 0 0 0 0 0 -0 -0 -0 0 0 0 0 0 0 0 0 0 0 0 0 0 0 0 0
0 0 0 0 0 0 0 0 0 0 0 0 0 0 0 0 0 0 0 0 0 0 0 0 -0 -0 0 0 0 0 0 0 0 0 0 0 0 0 0 -0 -0 -0 0
0 0 0 0 0 0 0 0 0 0 0 0 0 0 0 0 0 0 0 0 0 0 0 0 -0 -0 0 0 -0 -0 -0 0 0 0 -0 -0 -0 -0 -0 -0 -0 -0 -0
Wind_Speed_500mb
4 11 15 16 16 18 18 14 14 20 5 6 5 12 14 20 12 7 5 10 24 26 24 22 21 27 31 40 45 45 37 33 38 43 46 48 49 46 42 37 36 38 40
7 14 16 20 21 17 10 5 3 5 14 12 8 12 16 24 18 2 4 7 17 17 18 22 29 32 28 30 37 44 41 33 33 44 51 54 54 52 43 37 34 36 42
11 17 21 24 18 14 9 7 5 4 7 16 9 12 14 24 17 3 5 7 13 19 23 25 30 30 31 29 35 43 46 42 39 41 49 55 55 51 51 45 48 55 58
15 19 23 23 16 14 10 9 7 4 8 12 20 9 11 20 18 7 5 9 16 21 27 31 33 32 34 36 37 38 45 51 47 45 50 53 56 54 54 61 69 71 66
20 22 24 23 18 15 12 11 9 8 11 15 18 11 7 11 13 11 10 12 16 19 22 28 35 30 38 43 39 41 48 53 52 50 57 55 60 58 57 66 72 69 73
24 25 27 26 22 17 10 15 13 13 17 16 17 14 5 3 5 8 11 15 19 22 24 28 33 37 36 32 35 44 49 54 51 51 52 52 60 62 71 71 65 67 63
25 27 28 26 24 19 18 17 18 17 19 21 19 7 6 7 10 13 19 23 27 29 33 38 41 43 44 41 35 49 54 47 38 48 44 54 61 69 65 57 57 58 59
28 24 28 30 25 22 18 16 17 20 17 12 5 7 10 14 21 27 31 38 40 42 44 51 50 47 49 47 44 58 42 39 45 48 49 56 69 71 49 44 46 49 43
31 25 31 32 24 22 21 16 18 16 11 6 7 13 21 26 31 37 42 43 48 48 46 47 53 53 44 42 41 42 44 40 43 44 55 57 67 51 45 43 37 39 43
33 32 32 24 21 19 18 17 13 13 11 11 15 20 30 37 29 24 27 24 26 35 38 37 49 47 35 32 33 44 44 44 45 48 55 64 49 43 43 37 35 36 34
28 32 28 22 15 14 11 11 11 8 10 16 23 26 29 28 24 22 22 27 35 46 37 37 31 32 27 27 36 43 40 44 44 50 66 52 47 43 36 33 30 30 33
29 31 24 18 17 16 9 9 9 12 19 23 27 24 24 26 27 26 26 31 35 41 33 27 27 24 30 35 41 42 42 41 48 62 50 47 46 41 35 33 29 24 26
34 30 22 16 22 16 13 11 14 20 24 26 32 37 38 37 33 27 26 31 34 31 26 21 20 32 39 40 38 36 40 50 51 43 45 44 36 34 36 29 31 25 31
38 29 22 20 18 13 13 15 17 22 33 41 39 38 40 31 27 23 27 28 28 21 19 19 28 37 36 39 35 45 48 38 41 41 41 40 33 35 33 33 35 31 32
34 28 28 19 15 12 10 15 27 32 33 25 27 29 25 16 13 23 24 24 21 22 22 28 35 40 40 43 52 47 30 36 38 38 36 36 33 35 41 35 34 30 29
40 33 28 20 16 12 14 17 23 21 16 21 28 29 19 13 16 21 24 18 18 24 27 31 35 38 49 51 43 36 30 36 34 37 36 36 37 34 39 37 35 34 39
36 33 27 15 12 10 12 20 21 18 19 18 21 15 13 15 16 15 13 17 25 24 32 30 37 50 47 41 37 29 35 36 33 39 36 42 40 39 41 38 47 39 38
39 28 16 7 6 8 15 19 17 14 12 11 14 17 15 12 10 13 19 24 28 27 26 33 48 46 44 37 34 33 32 29 33 42 32 36 41 45 44 42 39 44 42
29 20 11 6 12 12 14 14 2 7 12 15 14 11 5 8 14 17 21 21 20 25 26 36 49 41 33 31 36 34 37 35 36 39 33 39 40 44 40 39 41 40 38
25 16 15 7 8 7 11 6 5 9 13 10 5 3 4 12 17 19 16 18 24 26 25 38 47 39 34 34 35 33 37 43 41 36 36 37 41 41 42 43 41 39 38
18 15 7 9 2 4 12 7 9 12 12 4 3 4 7 17 14 10 12 19 25 28 29 41 43 36 36 30 39 40 42 42 44 38 40 39 43 38 40 40 40 34 35
18 11 4 5 11 9 16 11 9 12 8 4 1 4 10 18 10 6 11 19 23 25 34 44 38 37 33 32 35 41 44 32 50 45 45 42 40 42 41 42 44 42 41
17 6 0 8 10 19 17 8 7 11 6 2 3 6 14 17 8 10 16 23 25 31 39 41 34 33 30 29 34 39 44 30 42 44 44 49 43 43 43 45 45 43 41
16 5 12 6 16 18 10 8 9 8 6 3 3 8 11 16 20 20 22 27 31 35 40 36 34 33 31 29 32 35 36 44 41 44 44 49 52 48 42 46 51 52 41
11 13 13 15 19 12 10 9 8 7 5 2 3 7 12 17 19 19 24 29 33 34 33 32 31 32 31 28 31 32 33 37 43 45 47 50 51 50 52 57 58 48 35
22 21 22 20 13 11 10 7 5 3 5 3 3 9 16 24 22 21 23 27 29 30 31 30 26 29 31 31 31 35 31 31 34 40 46 51 54 54 57 59 53 38 31
Wind_Direction_500mb
200 197 179 162 147 137 120 100 81 62 74 208 339 332 349 3 1 297 345 15 41 49 47 39 24 15 14 16 18 13 8 357 344 343 337 338 337 335 331 317 310 305 300
200 197 180 168 156 145 143 117 89 70 26 15 353 357 3 11 16 62 47 25 13 22 16 4 2 357 351 353 0 4 1 350 331 327 331 332 329 333 328 327 329 330 324
202 192 185 168 163 162 184 203 225 262 341 2 355 11 12 20 22 85 18 6 356 360 349 339 330 332 342 335 339 351 346 343 336 331 333 333 328 328 329 327 318 317 314
205 194 193 176 169 173 187 210 245 264 290 329 347 354 25 23 21 25 336 338 326 326 330 337 330 322 322 327 321 329 340 333 329 320 323 326 332 328 325 326 321 318 317
206 200 193 182 183 182 212 221 249 257 290 307 327 336 350 1 12 7 2 354 347 348 343 331 339 329 317 306 305 324 332 327 321 320 323 320 326 325 321 320 318 317 321
203 201 194 187 193 202 222 230 236 252 267 297 310 317 277 339 354 355 349 350 332 326 336 340 338 337 332 322 314 311 323 325 317 315 322 321 321 321 319 315 317 320 323
203 200 203 193 198 214 232 238 249 283 271 275 293 271 253 278 291 303 311 309 319 326 326 325 323 320 329 324 315 310 317 318 314 317 318 325 321 327 320 309 314 316 317
198 205 202 201 209 209 233 253 257 286 267 271 231 252 291 298 301 306 307 306 307 312 313 313 315 312 317 319 322 317 321 316 321 331 324 324 329 334 317 317 314 317 324
198 200 194 191 209 227 238 262 268 275 213 225 282 305 315 320 323 316 313 307 309 321 315 314 317 322 314 318 318 325 322 323 320 322 321 323 333 327 328 320 322 325 327
195 191 182 201 214 231 240 261 262 211 222 271 301 313 318 316 320 319 315 320 329 335 327 310 314 320 323 322 315 325 326 324 322 325 328 327 327 329 333 326 318 318 319
189 187 197 206 235 222 246 227 191 207 270 299 310 320 317 308 314 314 320 322 329 338 328 324 332 329 326 324 316 318 321 323 324 325 328 333 334 336 336 335 328 314 313
188 194 191 219 219 198 188 184 218 266 289 301 314 322 325 308 304 305 309 317 331 337 332 332 342 338 329 320 319 325 327 324 321 327 334 339 340 345 340 335 330 323 306
186 189 200 223 213 216 218 231 252 279 292 303 311 311 313 312 308 292 303 321 334 336 334 337 334 330 332 334 333 341 340 328 334 343 345 344 346 343 345 340 332 329 324
185 186 197 183 189 218 255 267 277 295 308 314 318 316 311 305 293 284 312 327 337 339 340 329 323 335 339 343 342 344 343 349 345 347 345 347 352 349 349 345 345 349 347
184 191 186 196 224 242 265 291 305 310 314 327 334 331 320 322 281 302 323 332 336 341 330 325 337 344 347 343 340 343 346 352 351 355 358 357 2 352 354 354 349 350 351
189 194 193 204 223 260 302 316 328 322 329 324 322 327 336 326 318 331 334 336 337 339 338 348 354 356 346 344 350 353 354 359 1 359 356 354 353 355 347 350 351 352 346
193 194 180 201 245 279 305 320 338 332 306 293 321 342 340 335 336 329 331 328 334 338 352 4 1 352 353 353 355 1 4 2 360 353 356 357 359 2 355 359 359 354 352
171 178 192 199 230 282 316 337 324 290 270 298 320 319 323 322 330 331 332 332 340 2 12 11 2 4 4 12 14 14 7 1 358 355 357 3 1 4 2 360 2 355 0
175 183 208 264 282 281 337 325 249 240 242 302 299 305 286 318 330 337 344 358 14 9 12 8 2 5 10 12 12 5 359 358 352 357 7 360 358 354 360 0 356 358 355
179 190 200 237 290 307 302 226 297 257 269 274 275 290 313 333 341 1 14 15 11 8 7 1 360 0 357 5 6 0 5 358 2 6 4 3 359 357 352 354 352 353 353
173 173 209 320 243 239 206 235 289 272 268 233 152 110 356 352 6 9 5 6 5 7 360 355 356 356 359 10 360 0 0 355 6 8 3 358 356 359 0 1 353 350 346
187 186 243 4 198 216 207 267 284 251 256 279 62 32 13 1 357 325 342 359 1 359 354 354 359 357 357 353 354 352 356 7 4 4 2 359 360 4 359 354 352 350 342
187 212 240 179 225 196 229 254 261 229 231 187 100 43 25 23 13 332 340 355 354 350 350 353 360 358 358 355 357 355 354 6 1 360 357 355 353 352 347 345 345 342 342
183 144 177 219 195 201 233 261 210 215 199 180 58 25 12 3 357 347 346 346 345 346 347 353 356 359 358 355 358 359 4 355 356 354 348 343 344 342 338 338 335 329 322
189 163 174 182 189 209 227 225 211 195 202 154 36 356 350 343 334 330 336 337 337 340 348 353 358 356 350 349 350 350 355 356 354 351 346 337 336 335 333 332 334 338 329
151 165 183 183 196 227 228 224 211 239 194 160 334 341 343 339 336 336 339 343 350 352 349 350 356 349 352 351 347 349 346 344 343 341 346 347 349 345 339 338 339 336 333
Wind_Speed_850mb
4 11 15 16 16 18 18 14 14 20 5 6 5 12 14 20 12 7 5 10 24 26 24 22 21 27 31 40 45 45 37 33 38 43 46 48 49 46 42 37 36 38 40
7 14 16 20 21 17 10 5 3 5 14 12 8 12 16 24 18 2 4 7 17 17 18 22 29 32 28 30 37 44 41 33 33 44 51 54 54 52 43 37 34 36 42
11 17 21 24 18 14 9 7 5 4 7 16 9 12 14 24 17 3 5 7 13 19 23 25 30 30 31 29 35 43 46 42 39 41 49 55 55 51 51 45 48 55 58
15 19 23 23 16 14 10 9 7 4 8 12 20 9 11 20 18 7 5 9 16 21 27 31 33 32 34 36 37 38 45 51 47 45 50 53 56 54 54 61 69 71 66
20 22 24 23 18 15 12 11 9 8 11 15 18 11 7 11 13 11 10 12 16 19 22 28 35 30 38 43 39 41 48 53 52 50 57 55 60 58 57 66 72 69 73
24 25 27 26 22 17 10 15 13 13 17 16 17 14 5 3 5 8 11 15 19 22 24 28 33 37 36 32 35 44 49 54 51 51 52 52 60 62 71 71 65 67 63
25 27 28 26 24 19 18 17 18 17 19 21 19 7 6 7 10 13 19 23 27 29 33 38 41 43 44 41 35 49 54 47 38 48 44 54 61 69 65 57 57 58 59
28 24 28 30 25 22 18 16 17 20 17 12 5 7 10 14 21 27 31 38 40 42 44 51 50 47 49 47 44 58 42 39 45 48 49 56 69 71 49 44 46 49 43
31 25 31 32 24 22 21 16 18 16 11 6 7 13 21 26 31 37 42 43 48 48 46 47 53 53 44 42 41 42 44 40 43 44 55 57 67 51 45 43 37 39 43
33 32 32 24 21 19 18 17 13 13 11 11 15 20 30 37 29 24 27 24 26 35 38 37 49 47 35 32 33 44 44 44 45 48 55 64 49 43 43 37 35 36 34
28 32 28 22 15 14 11 11 11 8 10 16 23 26 29 28 24 22 22 27 35 46 37 37 31 32 27 27 36 43 40 44 44 50 66 52 47 43 36 33 30 30 33
29 31 24 18 17 16 9 9 9 12 19 23 27 24 24 26 27 26 26 31 35 41 33 27 27 24 30 35 41 42 42 41 48 62 50 47 46 41 35 33 29 24 26
34 30 22 16 22 16 13 11 14 20 24 26 32 37 38 37 33 27 26 31 34 31 26 21 20 32 39 40 38 36 40 50 51 43 45 44 36 34 36 29 31 25 31
38 29 22 20 18 13 13 15 17 22 33 41 39 38 40 31 27 23 27 28 28 21 19 19 28 37 36 39 35 45 48 38 41 41 41 40 33 35 33 33 35 31 32
34 28 28 19 15 12 10 15 27 32 33 25 27 29 25 16 13 23 24 24 21 22 22 28 35 40 40 43 52 47 30 36 38 38 36 36 33 35 41 35 34 30 29
40 33 28 20 16 12 14 17 23 21 16 21 28 29 19 13 16 21 24 18 18 24 27 31 35 38 49 51 43 36 30 36 34 37 36 36 37 34 39 37 35 34 39
36 33 27 15 12 10 12 20 21 18 19 18 21 15 13 15 16 15 13 17 25 24 32 30 37 50 47 41 37 29 35 36 33 39 36 42 40 39 41 38 47 39 38
39 28 16 7 6 8 15 19 17 14 12 11 14 17 15 12 10 13 19 24 28 27 26 33 48 46 44 37 34 33 32 29 33 42 32 36 41 45 44 42 39 44 42
29 20 11 6 12 12 14 14 2 7 12 15 14 11 5 8 14 17 21 21 20 25 26 36 49 41 33 31 36 34 37 35 36 39 33 39 40 44 40 39 41 40 38
25 16 15 7 8 7 11 6 5 9 13 10 5 3 4 12 17 19 16 18 24 26 25 38 47 39 34 34 35 33 37 43 41 36 36 37 41 41 42 43 41 39 38
18 15 7 9 2 4 12 7 9 12 12 4 3 4 7 17 14 10 12 19 25 28 29 41 43 36 36 30 39 40 42 42 44 38 40 39 43 38 40 40 40 34 35
18 11 4 5 11 9 16 11 9 12 8 4 1 4 10 18 10 6 11 19 23 25 34 44 38 37 33 32 35 41 44 32 50 45 45 42 40 42 41 42 44 42 41
17 6 0 8 10 19 17 8 7 11 6 2 3 6 14 17 8 10 16 23 25 31 39 41 34 33 30 29 34 39 44 30 42 44 44 49 43 43 43 45 45 43 41
16 5 12 6 16 18 10 8 9 8 6 3 3 8 11 16 20 20 22 27 31 35 40 36 34 33 31 29 32 35 36 44 41 44 44 49 52 48 42 46 51 52 41
11 13 13 15 19 12 10 9 8 7 5 2 3 7 12 17 19 19 24 29 33 34 33 32 31 32 31 28 31 32 33 37 43 45 47 50 51 50 52 57 58 48 35
22 21 22 20 13 11 10 7 5 3 5 3 3 9 16 24 22 21 23 27 29 30 31 30 26 29 31 31 31 35 31 31 34 40 46 51 54 54 57 59 53 38 31
Wind_Direction_850mb
200 197 179 162 147 137 120 100 81 62 74 208 339 332 349 3 1 297 345 15 41 49 47 39 24 15 14 16 18 13 8 357 344 343 337 338 337 335 331 317 310 305 300
200 197 180 168 156 145 143 117 89 70 26 15 353 357 3 11 16 62 47 25 13 22 16 4 2 357 351 353 0 4 1 350 331 327 331 332 329 333 328 327 329 330 324
202 192 185 168 163 162 184 203 225 262 341 2 355 11 12 20 22 85 18 6 356 360 349 339 330 332 342 335 339 351 346 343 336 331 333 333 328 328 329 327 318 317 314
205 194 193 176 169 173 187 210 245 264 290 329 347 354 25 23 21 25 336 338 326 326 330 337 330 322 322 327 321 329 340 333 329 320 323 326 332 328 325 326 321 318 317
206 200 193 182 183 182 212 221 249 257 290 307 327 336 350 1 12 7 2 354 347 348 343 331 339 329 317 306 305 324 332 327 321 320 323 320 326 325 321 320 318 317 321
203 201 194 187 193 202 222 230 236 252 267 297 310 317 277 339 354 355 349 350 332 326 336 340 338 337 332 322 314 311 323 325 317 315 322 321 321 321 319 315 317 320 323
203 200 203 193 198 214 232 238 249 283 271 275 293 271 253 278 291 303 311 309 319 326 326 325 323 320 329 324 315 310 317 318 314 317 318 325 321 327 320 309 314 316 317
198 205 202 201 209 209 233 253 257 286 267 271 231 252 291 298 301 306 307 306 307 312 313 313 315 312 317 319 322 317 321 316 321 331 324 324 329 334 317 317 314 317 324
198 200 194 191 209 227 238 262 268 275 213 225 282 305 315 320 323 316 313 307 309 321 315 314 317 322 314 318 318 325 322 323 320 322 321 323 333 327 328 320 322 325 327
195 191 182 201 214 231 240 261 262 211 222 271 301 313 318 316 320 319 315 320 329 335 327 310 314 320 323 322 315 325 326 324 322 325 328 327 327 329 333 326 318 318 319
189 187 197 206 235 222 246 227 191 207 270 299 310 320 317 308 314 314 320 322 329 338 328 324 332 329 326 324 316 318 321 323 324 325 328 333 334 336 336 335 328 314 313
188 194 191 219 219 198 188 184 218 266 289 301 314 322 325 308 304 305 309 317 331 337 332 332 342 338 329 320 319 325 327 324 321 327 334 339 340 345 340 335 330 323 306
186 189 200 223 213 216 218 231 252 279 292 303 311 311 313 312 308 292 303 321 334 336 334 337 334 330 332 334 333 341 340 328 334 343 345 344 346 343 345 340 332 329 324
185 186 197 183 189 218 255 267 277 295 308 314 318 316 311 305 293 284 312 327 337 339 340 329 323 335 339 343 342 344 343 349 345 347 345 347 352 349 349 345 345 349 347
184 191 186 196 224 242 265 291 305 310 314 327 334 331 320 322 281 302 323 332 336 341 330 325 337 344 347 343 340 343 346 352 351 355 358 357 2 352 354 354 349 350 351
189 194 193 204 223 260 302 316 328 322 329 324 322 327 336 326 318 331 334 336 337 339 338 348 354 356 346 344 350 353 354 359 1 359 356 354 353 355 347 350 351 352 346
193 194 180 201 245 279 305 320 338 332 306 293 321 342 340 335 336 329 331 328 334 338 352 4 1 352 353 353 355 1 4 2 360 353 356 357 359 2 355 359 359 354 352
171 178 192 199 230 282 316 337 324 290 270 298 320 319 323 322 330 331 332 332 340 2 12 11 2 4 4 12 14 14 7 1 358 355 357 3 1 4 2 360 2 355 0
175 183 208 264 282 281 337 325 249 240 242 302 299 305 286 318 330 337 344 358 14 9 12 8 2 5 10 12 12 5 359 358 352 357 7 360 358 354 360 0 356 358 355
179 190 200 237 290 307 302 226 297 257 269 274 275 290 313 333 341 1 14 15 11 8 7 1 360 0 357 5 6 0 5 358 2 6 4 3 359 357 352 354 352 353 353
173 173 209 320 243 239 206 235 289 272 268 233 152 110 356 352 6 9 5 6 5 7 360 355 356 356 359 10 360 0 0 355 6 8 3 358 356 359 0 1 353 350 346
187 186 243 4 198 216 207 267 284 251 256 279 62 32 13 1 357 325 342 359 1 359 354 354 359 357 357 353 354 352 356 7 4 4 2 359 360 4 359 354 352 350 342
187 212 240 179 225 196 229 254 261 229 231 187 100 43 25 23 13 332 340 355 354 350 350 353 360 358 358 355 357 355 354 6 1 360 357 355 353 352 347 345 345 342 342
183 144 177 219 195 201 233 261 210 215 199 180 58 25 12 3 357 347 346 346 345 346 347 353 356 359 358 355 358 359 4 355 356 354 348 343 344 342 338 338 335 329 322
189 163 174 182 189 209 227 225 211 195 202 154 36 356 350 343 334 330 336 337 337 340 348 353 358 356 350 349 350 350 355 356 354 351 346 337 336 335 333 332 334 338 329
151 165 183 183 196 227 228 224 211 239 194 160 334 341 343 339 336 336 339 343 350 352 349 350 356 349 352 351 347 349 346 344 343 341 346 347 349 345 339 338 339 336 333